User: anonymous   Login
Location: Ferintosh
(52.7647°N, 112.9692°W)
Time: 05:05:58
(UTC+00:00)
Language:

A-11 Canister half - Orbit

View from above orbital plane
View from above orbital plane
View from above satellite
View from above satellite

Ground track
Ground track

The orbit data is extracted from the following two-line orbital elements,

1 00053U 60009E   24143.93921179 -.00000064  00000-0  20362-3 0  9995
2 00053  47.2744 151.9369 0099065   2.0707 358.0475 12.17334189843429
Epoch (UTC): 22 May 2024 22:32:27
Eccentricity: 0.0099065
inclination: 47.2744°
perigee height: 1525 km
apogee height: 1683 km
right ascension of ascending node: 151.9369°
argument of perigee: 2.0707°
revolutions per day: 12.17334189
mean anomaly at epoch: 358.0475°
orbit number at epoch: 84342

The dashed part of the orbit path shows where the satellite is in the earth's shadow,  

DLR